User: anonymous   Login
Location: Dąbrówka
(52.2799°N, 15.8070°E)
Time: 13:28:32
(UTC+02:00)
Language:

AO-7 - Orbit

View from above orbital plane
View from above orbital plane
View from above satellite
View from above satellite

Ground track
Ground track

The orbit data is extracted from the following two-line orbital elements,

1  7530U 74089B   19170.90126024 -.00000039 +00000-0 +36984-4 0  9992
2  7530 101.7437 138.5497 0012161 347.1324 068.5063 12.53638514040439
Epoch (UTC): 19 June 2019 21:37:48
Eccentricity: 0.0012161
inclination: 101.7437°
perigee height: 1440 km
apogee height: 1459 km
right ascension of ascending node: 138.5497°
argument of perigee: 347.1324°
revolutions per day: 12.53638514
mean anomaly at epoch: 68.5063°
orbit number at epoch: 4043

The dashed part of the orbit path shows where the satellite is in the earth's shadow,  

DLR